カタログに戻る

COSMOS 1226

運用中軍事PO
NORAD 12091·PAYLOAD·🇷🇺 Russia

打ち上げ Dec 10, 1980 から Plesetsk Cosmodrome

Loading…

次のパス (今後24時間)

TLE

最新Source: Space-Track

元期: Sep 14, 2026, 02:38 UTC

1 12091U 80099A   26257.11033626  .00000057  00000-0  43277-4 0  9992
2 12091  82.9393 298.0583 0033774 172.2550 215.4693 13.74728029294974

AllMySatでCOSMOS 1226をリアルタイム追跡

Download on the App Store